アトラス彗星

C/2024 J3 ( ATLAS )

English version
Home page
Updated on September 4, 2024

---------------------------------------------------------------------

・ プロフィール

発見日 2024年5月6日
発見光度 17.6等
発見者 Asteroid Terrestrial-Impact Last Alert System (ATLAS) search program

・ 写真集

・ 軌道要素

Epoch 2024 Oct. 17.0 TT = JDT 2460600.5
T 2026 Nov. 25.27817 TT                                 Rudenko
q   3.8645964            (2000.0)            P               Q
z  -0.0002299      Peri.   74.09404     +0.30486348     -0.19909706
 +/-0.0000645      Node   285.96350     -0.55209519     +0.75988852
e   1.0008885      Incl.   75.62910     +0.77604714     +0.61881321
>From 163 observations 2024 May 6-Sept. 1, mean residual 0".5.

・ 星図

・ 光度変化

        m1 = 4.5 + 5 logΔ + 10.0 log r

---------------------------------------------------------------------

軌道要素はM.P.E.C. 2024-R10に掲載されたものです。
星図はステラナビゲータ Ver.11 (アストロアーツ) で作成したものです。
光度グラフはComet for Windowsで作成したものです。

---------------------------------------------------------------------

Copyright(C) Seiichi Yoshida (comet@aerith.net). All rights reserved.